Back to catalog

COSMOS 2251 DEB

LostVLEO
NORAD 39582·DEBRIS·🇷🇺 Russia

Launched Jun 16, 1993 from Plesetsk Cosmodrome

Loading…

Next Passes (next 24 hours)

TLE

StaleSource: Space-Track

Epoch: Mar 11, 2025, 12:48 UTC

1 39582U 93036BUM 25070.53380207  .00372107  00000-0  83605-2 0  9994
2 39582  73.9905 359.4667 0031863 184.4894 175.6034 15.41351035665350

Track COSMOS 2251 DEB in real time with AllMySat

Download on the App Store